| time (UTC) | temp F | wind direction | speed knots | gust knots | rain 1hr in | rain 24hr in | rain mn in | humidity % | barometer mb |
| 20260504141105 | 48 | 246 | 5.2 | 11.3 | 0.00 | 0.31 | 0.00 | 87 | 1017.2 |
| 20260504140604 | 48 | 238 | 3.5 | 7.0 | 0.00 | 0.31 | 0.00 | 87 | 1017.1 |
| 20260504140104 | 48 | 251 | 3.5 | 8.7 | 0.00 | 0.31 | 0.00 | 86 | 1017.1 |
| 20260504130604 | 50 | 199 | 4.3 | 13.9 | 0.00 | 0.31 | 0.31 | 88 | 1017.1 |
| 20260504110105 | 56 | 193 | 1.7 | 4.3 | 0.03 | 0.25 | 0.25 | 94 | 1017.3 |
| 20260504100604 | 57 | 326 | 2.6 | 10.4 | 0.00 | 0.22 | 0.22 | 91 | 1016.3 |
| 20260504090105 | 57 | 305 | 3.5 | 6.1 | 0.00 | 0.22 | 0.22 | 92 | 1016.2 |
| 20260504081605 | 57 | 309 | 2.6 | 7.8 | 0.00 | 0.22 | 0.22 | 91 | 1016.0 |
| 20260504081104 | 57 | 312 | 3.5 | 7.8 | 0.00 | 0.22 | 0.22 | 91 | 1016.0 |
| 20260504080604 | 57 | 298 | 4.3 | 8.7 | 0.00 | 0.22 | 0.22 | 92 | 1016.0 |
| 20260504080104 | 57 | 323 | 5.2 | 8.7 | 0.00 | 0.22 | 0.22 | 91 | 1016.0 |
| 20260504070104 | 57 | 331 | 2.6 | 10.4 | 0.00 | 0.22 | 0.22 | 91 | 1015.7 |
| 20260504060104 | 58 | 303 | 4.3 | 8.7 | 0.00 | 0.22 | 0.22 | 91 | 1015.7 |
| 20260504050604 | 58 | 309 | 3.5 | 8.7 | 0.00 | 0.22 | 0.22 | 91 | 1015.8 |
| 20260504045604 | 58 | 295 | 4.3 | 17.4 | 0.00 | 0.22 | 0.22 | 90 | 1015.9 |
| 20260504044604 | 58 | 259 | 4.3 | 11.3 | 0.00 | 0.22 | 0.22 | 91 | 1015.8 |
| 20260504043604 | 58 | 321 | 5.2 | 11.3 | 0.00 | 0.22 | 0.22 | 90 | 1015.8 |
| 20260504043104 | 58 | 319 | 2.6 | 10.4 | 0.00 | 0.22 | 0.22 | 90 | 1015.9 |
| 20260504040604 | 58 | 275 | 5.2 | 10.4 | 0.00 | 0.22 | 0.22 | 91 | 1015.8 |
| 20260504040104 | 58 | 321 | 5.2 | 10.4 | 0.00 | 0.22 | 0.22 | 92 | 1015.8 |
| 20260504035604 | 57 | 258 | 4.3 | 8.7 | 0.00 | 0.22 | 0.22 | 92 | 1015.9 |
| 20260504035105 | 57 | 288 | 6.1 | 8.7 | 0.00 | 0.22 | 0.22 | 92 | 1015.8 |
| 20260504034104 | 57 | 270 | 4.3 | 13.0 | 0.00 | 0.22 | 0.22 | 92 | 1015.9 |
| 20260504033604 | 57 | 257 | 6.1 | 13.0 | 0.00 | 0.22 | 0.22 | 92 | 1015.9 |
| 20260504032604 | 57 | 314 | 4.3 | 8.7 | 0.00 | 0.22 | 0.22 | 92 | 1016.2 |
| 20260504032104 | 57 | 276 | 3.5 | 11.3 | 0.00 | 0.22 | 0.22 | 92 | 1016.1 |
| 20260504031604 | 57 | 312 | 2.6 | 11.3 | 0.00 | 0.22 | 0.22 | 92 | 1016.2 |
| 20260504031104 | 57 | 322 | 5.2 | 11.3 | 0.00 | 0.22 | 0.22 | 93 | 1016.4 |
| 20260504030604 | 57 | 297 | 7.8 | 11.3 | 0.00 | 0.22 | 0.22 | 93 | 1016.5 |
| 20260504030104 | 57 | 244 | 5.2 | 11.3 | 0.00 | 0.22 | 0.22 | 93 | 1016.4 |
| 20260504025604 | 57 | 294 | 3.5 | 13.0 | 0.01 | 0.22 | 0.22 | 94 | 1016.5 |
| 20260504025104 | 58 | 330 | 6.1 | 13.0 | 0.02 | 0.22 | 0.22 | 94 | 1016.6 |
| 20260504024104 | 57 | 247 | 4.3 | 13.9 | 0.03 | 0.22 | 0.22 | 96 | 1016.6 |
| 20260504023604 | 56 | 314 | 4.3 | 13.9 | 0.03 | 0.22 | 0.22 | 96 | 1016.6 |
| 20260504023104 | 56 | 253 | 6.1 | 13.9 | 0.03 | 0.22 | 0.22 | 96 | 1016.6 |
| 20260504022104 | 55 | 279 | 6.1 | 11.3 | 0.03 | 0.22 | 0.22 | 95 | 1016.7 |
| 20260504021604 | 55 | 262 | 5.2 | 11.3 | 0.03 | 0.22 | 0.22 | 96 | 1016.9 |
| 20260504021104 | 55 | 264 | 6.1 | 11.3 | 0.03 | 0.22 | 0.22 | 95 | 1017.0 |
| 20260504020604 | 55 | 302 | 2.6 | 11.3 | 0.03 | 0.22 | 0.22 | 95 | 1017.1 |
| 20260504020104 | 55 | 266 | 5.2 | 10.4 | 0.03 | 0.22 | 0.22 | 95 | 1017.4 |
| 20260504015604 | 55 | 252 | 3.5 | 10.4 | 0.02 | 0.21 | 0.21 | 95 | 1017.5 |
| 20260504015104 | 55 | 279 | 5.2 | 11.3 | 0.02 | 0.20 | 0.20 | 94 | 1017.6 |
| 20260504014104 | 55 | 257 | 7.0 | 13.0 | 0.00 | 0.19 | 0.19 | 94 | 1017.7 |
| 20260504013603 | 55 | 260 | 6.1 | 13.0 | 0.00 | 0.19 | 0.19 | 94 | 1017.8 |
| 20260504013104 | 55 | 269 | 5.2 | 11.3 | 0.00 | 0.19 | 0.19 | 94 | 1017.7 |
| 20260504012604 | 55 | 243 | 6.1 | 13.0 | 0.00 | 0.19 | 0.19 | 94 | 1017.9 |
| 20260504012103 | 55 | 296 | 4.3 | 13.0 | 0.00 | 0.19 | 0.19 | 94 | 1018.0 |
| 20260504011603 | 55 | 264 | 7.8 | 15.6 | 0.00 | 0.19 | 0.19 | 94 | 1018.0 |
| 20260504011104 | 55 | 269 | 4.3 | 15.6 | 0.00 | 0.19 | 0.19 | 94 | 1018.2 |
| 20260504010604 | 55 | 267 | 8.7 | 19.1 | 0.00 | 0.19 | 0.19 | 94 | 1018.1 |
| 20260504010105 | 55 | 232 | 5.2 | 19.1 | 0.00 | 0.19 | 0.19 | 94 | 1018.2 |
| 20260504005104 | 55 | 253 | 6.1 | 17.4 | 0.00 | 0.19 | 0.19 | 95 | 1018.2 |
| 20260504004604 | 55 | 277 | 5.2 | 17.4 | 0.01 | 0.19 | 0.19 | 95 | 1018.2 |
| 20260504004105 | 55 | 253 | 6.1 | 15.6 | 0.01 | 0.19 | 0.19 | 95 | 1018.2 |
| 20260504003604 | 55 | 253 | 6.1 | 15.6 | 0.01 | 0.19 | 0.19 | 95 | 1018.1 |
| 20260504003105 | 55 | 270 | 6.1 | 15.6 | 0.02 | 0.19 | 0.19 | 95 | 1018.1 |
| 20260504002604 | 55 | 260 | 6.1 | 15.6 | 0.02 | 0.19 | 0.19 | 95 | 1018.1 |
| 20260504001604 | 54 | 276 | 10.4 | 14.8 | 0.04 | 0.19 | 0.19 | 95 | 1018.1 |
| 20260504000604 | 54 | 269 | 6.1 | 14.8 | 0.05 | 0.19 | 0.19 | 95 | 1018.1 |
| 20260504000104 | 54 | 292 | 4.3 | 13.0 | 0.07 | 0.19 | 0.19 | 95 | 1018.1 |
| 20260503235104 | 54 | 264 | 6.1 | 14.8 | 0.11 | 0.19 | 0.19 | 95 | 1018.0 |
| 20260503234104 | 53 | 259 | 6.1 | 14.8 | 0.13 | 0.18 | 0.18 | 95 | 1018.1 |
| 20260503233605 | 53 | 256 | 7.8 | 14.8 | 0.15 | 0.18 | 0.18 | 94 | 1018.1 |
| 20260503233105 | 53 | 283 | 5.2 | 13.0 | 0.14 | 0.17 | 0.17 | 94 | 1018.1 |
| 20260503232104 | 53 | 273 | 4.3 | 14.8 | 0.14 | 0.16 | 0.16 | 94 | 1018.2 |
| 20260503231604 | 53 | 286 | 7.8 | 14.8 | 0.13 | 0.15 | 0.15 | 94 | 1018.2 |
| 20260503231105 | 53 | 265 | 5.2 | 8.7 | 0.13 | 0.14 | 0.14 | 94 | 1018.2 |
| 20260503230604 | 53 | 263 | 4.3 | 13.0 | 0.14 | 0.14 | 0.14 | 94 | 1018.2 |
| 20260503230104 | 53 | 248 | 5.2 | 13.0 | 0.12 | 0.12 | 0.12 | 93 | 1018.1 |
| 20260503225604 | 53 | 255 | 5.2 | 13.0 | 0.10 | 0.10 | 0.10 | 93 | 1018.2 |
| 20260503225104 | 53 | 288 | 5.2 | 13.0 | 0.08 | 0.08 | 0.08 | 93 | 1018.1 |
| 20260503224605 | 53 | 274 | 5.2 | 8.7 | 0.06 | 0.06 | 0.06 | 93 | 1018.1 |
| 20260503224104 | 53 | 289 | 3.5 | 10.4 | 0.05 | 0.05 | 0.05 | 92 | 1018.0 |
| 20260503223604 | 53 | 264 | 4.3 | 13.9 | 0.03 | 0.03 | 0.03 | 92 | 1018.1 |
| 20260503223104 | 53 | 262 | 5.2 | 13.9 | 0.02 | 0.02 | 0.02 | 92 | 1018.1 |
| 20260503222104 | 53 | 261 | 7.0 | 13.9 | 0.02 | 0.02 | 0.02 | 91 | 1018.1 |
| 20260503221605 | 54 | 270 | 9.6 | 13.9 | 0.02 | 0.02 | 0.02 | 90 | 1018.0 |
| 20260503220604 | 54 | 260 | 5.2 | 11.3 | 0.00 | 0.00 | 0.00 | 88 | 1018.1 |
| 20260503215605 | 54 | 248 | 5.2 | 11.3 | 0.00 | 0.00 | 0.00 | 88 | 1018.1 |
| 20260503215104 | 54 | 235 | 4.3 | 13.0 | 0.00 | 0.00 | 0.00 | 88 | 1018.2 |
| 20260503214605 | 55 | 259 | 8.7 | 13.0 | 0.00 | 0.00 | 0.00 | 86 | 1018.2 |
| 20260503214104 | 55 | 242 | 6.1 | 13.0 | 0.00 | 0.00 | 0.00 | 85 | 1018.0 |
| 20260503213604 | 56 | 241 | 5.2 | 10.4 | 0.00 | 0.00 | 0.00 | 83 | 1018.1 |
| 20260503212605 | 56 | 261 | 5.2 | 8.7 | 0.00 | 0.00 | 0.00 | 81 | 1018.0 |
| 20260503212104 | 56 | 259 | 5.2 | 8.7 | 0.00 | 0.00 | 0.00 | 81 | 1018.0 |
| 20260503211604 | 56 | 256 | 5.2 | 11.3 | 0.00 | 0.00 | 0.00 | 80 | 1017.9 |
| 20260503211104 | 56 | 247 | 6.1 | 11.3 | 0.00 | 0.00 | 0.00 | 80 | 1018.0 |
| 20260503210605 | 56 | 254 | 6.1 | 11.3 | 0.00 | 0.00 | 0.00 | 80 | 1018.0 |
| 20260503210105 | 56 | 260 | 5.2 | 10.4 | 0.00 | 0.00 | 0.00 | 80 | 1017.8 |
| 20260503205604 | 56 | 249 | 7.0 | 8.7 | 0.00 | 0.00 | 0.00 | 80 | 1017.8 |
| 20260503205104 | 56 | 254 | 4.3 | 7.0 | 0.00 | 0.00 | 0.00 | 79 | 1017.7 |
| 20260503204604 | 56 | 263 | 4.3 | 8.7 | 0.00 | 0.00 | 0.00 | 79 | 1017.7 |
| 20260503204104 | 56 | 258 | 6.1 | 8.7 | 0.00 | 0.00 | 0.00 | 79 | 1017.6 |
| 20260503203604 | 56 | 252 | 5.2 | 7.0 | 0.00 | 0.00 | 0.00 | 79 | 1017.6 |
| 20260503203104 | 56 | 267 | 4.3 | 7.0 | 0.00 | 0.00 | 0.00 | 79 | 1017.6 |
| 20260503202604 | 56 | 266 | 4.3 | 7.0 | 0.00 | 0.00 | 0.00 | 79 | 1017.6 |
| 20260503202104 | 56 | 256 | 4.3 | 7.0 | 0.00 | 0.00 | 0.00 | 80 | 1017.6 |
| 20260503201605 | 56 | 267 | 4.3 | 7.8 | 0.00 | 0.00 | 0.00 | 80 | 1017.5 |
| 20260503200605 | 56 | 256 | 4.3 | 7.8 | 0.00 | 0.00 | 0.00 | 80 | 1017.5 |
| 20260503200105 | 56 | 264 | 2.6 | 7.8 | 0.00 | 0.00 | 0.00 | 80 | 1017.5 |
| 20260503195604 | 56 | 265 | 3.5 | 8.7 | 0.00 | 0.00 | 0.00 | 79 | 1017.4 |
| 20260503195104 | 56 | 245 | 5.2 | 8.7 | 0.00 | 0.00 | 0.00 | 80 | 1017.5 |
| 20260503194604 | 56 | 261 | 3.5 | 7.8 | 0.00 | 0.00 | 0.00 | 80 | 1017.5 |
| 20260503194104 | 56 | 245 | 2.6 | 7.8 | 0.00 | 0.00 | 0.00 | 80 | 1017.6 |
| 20260503193604 | 56 | 258 | 5.2 | 7.8 | 0.00 | 0.00 | 0.00 | 80 | 1017.5 |
| 20260503193104 | 56 | 252 | 4.3 | 7.0 | 0.00 | 0.00 | 0.00 | 80 | 1017.4 |
| 20260503192604 | 56 | 248 | 3.5 | 7.8 | 0.00 | 0.00 | 0.00 | 80 | 1017.4 |
| 20260503192104 | 56 | 256 | 4.3 | 7.8 | 0.00 | 0.00 | 0.00 | 80 | 1017.3 |
| 20260503191604 | 57 | 252 | 2.6 | 8.7 | 0.00 | 0.00 | 0.00 | 80 | 1017.4 |
| 20260503191104 | 57 | 246 | 4.3 | 8.7 | 0.00 | 0.00 | 0.00 | 79 | 1017.4 |
| 20260503184604 | 57 | 258 | 4.3 | 7.0 | 0.00 | 0.00 | 0.00 | 77 | 1017.5 |
| 20260503184104 | 58 | 257 | 3.5 | 7.0 | 0.00 | 0.00 | 0.00 | 77 | 1017.5 |
| 20260503183604 | 58 | 254 | 4.3 | 7.0 | 0.00 | 0.00 | 0.00 | 76 | 1017.5 |
| 20260503183104 | 58 | 254 | 5.2 | 7.0 | 0.00 | 0.00 | 0.00 | 76 | 1017.6 |
| 20260503182604 | 58 | 263 | 4.3 | 7.0 | 0.00 | 0.00 | 0.00 | 75 | 1017.5 |
| 20260503182104 | 59 | 240 | 3.5 | 7.0 | 0.00 | 0.00 | 0.00 | 74 | 1017.5 |
| 20260503181604 | 59 | 252 | 3.5 | 6.1 | 0.00 | 0.00 | 0.00 | 73 | 1017.4 |
| 20260503181104 | 59 | 269 | 2.6 | 6.1 | 0.00 | 0.00 | 0.00 | 73 | 1017.4 |
| 20260503180605 | 59 | 259 | 1.7 | 6.1 | 0.00 | 0.00 | 0.00 | 73 | 1017.3 |
| 20260503180105 | 59 | 280 | 1.7 | 6.1 | 0.00 | 0.00 | 0.00 | 73 | 1017.3 |
| 20260503175604 | 59 | 269 | 2.6 | 6.1 | 0.00 | 0.00 | 0.00 | 73 | 1017.3 |
| 20260503175104 | 59 | 294 | 1.7 | 7.8 | 0.00 | 0.00 | 0.00 | 73 | 1017.3 |
| 20260503174104 | 59 | 316 | 2.6 | 7.8 | 0.00 | 0.00 | 0.00 | 73 | 1017.4 |
| 20260503173104 | 59 | 313 | 1.7 | 5.2 | 0.00 | 0.00 | 0.00 | 73 | 1017.3 |
| 20260503172604 | 59 | 292 | 2.6 | 5.2 | 0.00 | 0.00 | 0.00 | 73 | 1017.4 |
| 20260503172104 | 59 | 250 | 1.7 | 4.3 | 0.00 | 0.00 | 0.00 | 73 | 1017.4 |
| 20260503171604 | 60 | 250 | 1.7 | 7.0 | 0.00 | 0.00 | 0.00 | 72 | 1017.4 |
| 20260503170604 | 60 | 296 | 2.6 | 7.8 | 0.00 | 0.00 | 0.00 | 71 | 1017.4 |
| 20260503170104 | 60 | 297 | 3.5 | 7.8 | 0.00 | 0.00 | 0.00 | 71 | 1017.5 |
| 20260503160104 | 59 | 309 | 5.2 | 10.4 | 0.00 | 0.00 | 0.00 | 74 | 1018.1 |
| 20260503150604 | 59 | 310 | 5.2 | 11.3 | 0.00 | 0.00 | 0.00 | 75 | 1018.5 |
| 20260503150104 | 59 | 306 | 6.1 | 13.0 | 0.00 | 0.00 | 0.00 | 75 | 1018.5 |